[[[{"header":{"parameterUnit":"kt","parameterCategory":2,"dx":1,"dy":1,"la1":30.253999710083008,"la2":30.299108505249023,"lo1":-89.0895004272461,"lo2":-89.04439544677734,"nx":28,"ny":28,"refTime":"2022-10-12T21:00:00:Z","depth":0,"parameterNumber":1,"parameterNumberName":"U-component_of_WINDS"},"data":[0.8726,0.8841,0.8798,0.891,0.889,0.896,0.8972,0.8983,0.8981,0.9062,0.9101,0.9072,0.9055,0.9094,0.9136,0.9122,0.9145,0.9217,0.9189,0.8902,0.886,0.8819,0.8789,0.9221,0.9222,0.9493,0.9496,0.9498,0.8521,0.8501,0.8547,0.8563,0.8602,0.8506,0.8512,0.8552,0.8619,0.8617,0.8653,0.8722,0.8771,0.8729,0.8771,0.8827,0.8786,0.8841,0.8838,0.8838,0.8528,0.8497,0.8874,0.8873,0.8873,0.8873,0.8873,0.8873,0.8134,0.8205,0.8188,0.8237,0.8233,0.8244,0.8305,0.8264,0.8311,0.8346,0.8286,0.8361,0.8353,0.8382,0.8382,0.8441,0.8373,0.8421,0.8434,0.8449,0.8471,0.8089,0.8446,0.8444,0.8443,0.8442,0.8441,0,0.7839,0.7797,0.7837,0.7866,0.7899,0.7918,0.7927,0.7963,0.7862,0.7905,0.7964,0.7991,0.8046,0.8099,0.8127,0.8117,0.8026,0.8011,0.8045,0.8078,0.8103,0.8094,0.7595,0.8002,0.7998,0.7996,0.7993,0.7992,0.745,0.7536,0.7496,0.7531,0.7524,0.7582,0.7608,0.7511,0.7544,0.7543,0.7612,0.7661,0.7696,0.7801,0.7756,0.7798,0.7756,0.7916,0.7762,0.7788,0.7762,0.776,0.7769,0.795,0.7955,0.796,0.7963,0,0.7235,0.7161,0.7281,0.7233,0.7223,0.732,0.728,0.7348,0.7301,0.7388,0.7403,0.7332,0.7393,0.7321,0.7377,0.7338,0.7503,0.7457,0.7505,0.7493,0.7632,0.7622,0.8089,0.8147,0.7694,0.7698,0.7702,0,0.6876,0.6993,0.6877,0.695,0.7078,0.6976,0.7106,0.7078,0.7067,0.7135,0.7016,0.7083,0.6979,0.7037,0.698,0.71,0.711,0.7089,0.7073,0.7102,0.7106,0.7123,0.7104,0.7029,0.7027,0.7025,0.7023,0,0.6551,0.6625,0.6742,0.6748,0.6709,0.6768,0.6755,0.6741,0.6768,0.6791,0.6808,0.6844,0.6865,0.6895,0.6822,0.672,0.6967,0.6812,0.6946,0.6949,0.7008,0.7006,0.7434,0.702,0.702,0.7019,0.7018,0,0.6251,0.6272,0.6453,0.6417,0.6441,0.652,0.6546,0.6595,0.659,0.6557,0.6576,0.6489,0.6586,0.6438,0.6571,0.6459,0.6487,0.6475,0.6483,0.6491,0.6329,0.6585,0.6995,0.7038,0.6494,0.649,0.6486,0,0.5901,0.6062,0.5975,0.615,0.6215,0.6075,0.6161,0.6158,0.6122,0.6174,0.6133,0.6195,0.6068,0.6078,0.6153,0.6116,0.6261,0.6094,0.6178,0.6182,0.6186,0.6562,0.6643,0.6912,0.6429,0.6435,0.6439,0,0.5621,0.5568,0.5606,0.5608,0.5585,0.5639,0.5737,0.5772,0.5812,0.5821,0.5904,0.5986,0.5895,0.5912,0.5845,0.5928,0.616,0.582,0.5818,0.5887,0.6392,0.6469,0.6515,0.6098,0.6105,0.611,0.6394,0,0.519,0.5259,0.5355,0.5363,0.5391,0.5496,0.5415,0.5456,0.5387,0.5346,0.5464,0.5445,0.5485,0.5516,0.5451,0.566,0.5615,0.5518,0.5372,0.5617,0.571,0.5747,0.5241,0.5236,0.5232,0.5229,0,0,0.4876,0.4973,0.4874,0.4963,0.4981,0.4835,0.4954,0.4956,0.4965,0.4982,0.4898,0.5014,0.5003,0.5156,0.5226,0.5241,0.5273,0.519,0.55,0.5531,0.5559,0.5658,0.5698,0.5222,0.522,0.5219,0.5218,0,0.4702,0.4685,0.4802,0.4797,0.4788,0.4736,0.4765,0.4731,0.471,0.4823,0.4705,0.4766,0.4861,0.4865,0.488,0.5168,0.5078,0.5186,0.5368,0.5462,0.5498,0.553,0.5635,0.5674,0.5208,0.5208,0.5209,0,0.4414,0.4385,0.4432,0.4464,0.4457,0.4527,0.4351,0.4433,0.4485,0.4325,0.4441,0.442,0.4419,0.4572,0.4638,0.4565,0.4906,0.4783,0.4807,0.4814,0.4901,0.4945,0.4983,0.4477,0.4475,0.4473,0,0,0.4275,0.4338,0.4278,0.442,0.4424,0.4349,0.4378,0.4312,0.4311,0.4312,0.4283,0.4289,0.4343,0.4381,0.4428,0.4607,0.4601,0.4696,0.4731,0.4759,0.4782,0.4878,0.492,0.4464,0.4464,0.4464,0,0,0.421,0.4145,0.4074,0.4227,0.4229,0.4182,0.4274,0.4188,0.422,0.42,0.4097,0.4094,0.4235,0.422,0.4116,0.4375,0.4232,0.4255,0.438,0.4423,0.4456,0.4459,0.3938,0,0,0,0,0,0.3989,0.4151,0.4088,0.4101,0.4143,0.4217,0.4222,0.4137,0.4037,0.4111,0.4074,0.3974,0.4143,0.4048,0.4065,0.4184,0.4355,0.4375,0.4393,0.4596,0.4641,0.4679,0,0,0,0,0,0,0.3994,0.401,0.4083,0.4045,0.4053,0.421,0.4021,0.4003,0.4027,0.4006,0.3984,0.3973,0.3905,0.4034,0.405,0.4165,0.3932,0.4363,0.4379,0.4394,0.4612,0.4649,0.468,0,0,0,0,0,0.3997,0.401,0.4097,0.4042,0.4049,0.3976,0.4015,0.3998,0.4015,0.3957,0.3943,0.3949,0.3911,0.3919,0.4043,0.4159,0.392,0.3926,0.4374,0.4387,0.4398,0.463,0,0,0,0,0,0,0.3999,0.3996,0.4097,0.4096,0.3973,0.3965,0.3961,0.3994,0.3963,0.395,0.3916,0.39,0.3917,0.3922,0.3929,0.4162,0.391,0.3917,0.3921,0.4383,0.4394,0.4403,0,0,0,0,0,0,0.3989,0.3997,0.4096,0.4014,0.4003,0.3956,0.3952,0.4046,0.3965,0.3924,0.3909,0.391,0.3907,0.3925,0.393,0.4079,0.3902,0.3909,0.3913,0.3916,0.4392,0.44,0,0,0,0,0,0,0.3991,0.3998,0.4014,0.4006,0.3996,0.3981,0.4038,0.4086,0.3891,0.3927,0.3871,0.3862,0.3914,0.3916,0.3931,0.408,0.408,0.3903,0.3907,0.391,0.3912,0,0,0,0,0,0,0,0.3992,0.3965,0.4101,0.3999,0.3989,0.4089,0.4088,0.4088,0.3889,0.3881,0.3873,0.3866,0.3866,0.3873,0.388,0.408,0,0,0.3902,0.3905,0,0,0,0,0,0,0,0,0.396,0.3963,0.4101,0.4101,0.4101,0.4089,0.4088,0.4088,0.3887,0.3881,0.3875,0.3869,0.3868,0.3874,0.3879,0,0,0,0,0,0,0,0,0,0,0,0,0,0,0,0.4101,0.4101,0,0.4089,0.4088,0.4088,0.3887,0.3881,0.3876,0.3871,0.387,0.3874,0.3879,0,0,0,0,0,0,0,0,0,0,0,0,0,0,0,0,0,0,0,0,0,0,0,0,0,0,0,0,0,0,0,0,0,0,0,0,0,0,0,0,0,0,0,0,0,0,0,0,0,0,0,0,0,0,0,0,0,0,0,0,0,0,0,0,0,0,0,0,0]}],[{"header":{"parameterUnit":"kt","parameterCategory":2,"dx":1,"dy":1,"la1":30.253999710083008,"la2":30.299108505249023,"lo1":-89.0895004272461,"lo2":-89.04439544677734,"nx":28,"ny":28,"refTime":"2022-10-12T21:00:00:Z","depth":0,"parameterNumber":2,"parameterNumberName":"V-component_of_WINDS"},"data":[-1.0208,-1.0141,-1.0144,-1.0069,-1.0058,-1.0008,-0.9991,-0.9969,-0.9952,-0.9892,-0.9858,-0.9853,-0.9836,-0.9796,-0.976,-0.9759,-0.9746,-0.9722,-0.9725,-0.9826,-0.9841,-0.9855,-0.9873,-0.9718,-0.9717,-0.9623,-0.9622,-0.9621,-1.0292,-1.0282,-1.024,-1.0203,-1.017,-1.0195,-1.0166,-1.0137,-1.009,-1.0067,-1.0032,-0.9979,-0.9936,-0.9926,-0.9886,-0.9857,-0.9867,-0.9846,-0.9852,-0.985,-0.9956,-0.9976,-0.9839,-0.9839,-0.9839,-0.984,-0.984,-0.984,-1.0447,-1.0405,-1.0384,-1.0339,-1.032,-1.0294,-1.0255,-1.0249,-1.0208,-1.0165,-1.0173,-1.0119,-1.0096,-1.0045,-1.0028,-0.9988,-1.0011,-0.9989,-0.9985,-0.9981,-0.9979,-1.0128,-0.998,-0.998,-0.998,-0.9981,-0.9981,0,-1.0562,-1.0568,-1.0526,-1.0488,-1.0454,-1.0423,-1.0394,-1.0369,-1.0377,-1.0342,-1.0293,-1.0264,-1.0208,-1.0163,-1.0123,-1.0109,-1.0133,-1.0132,-1.0118,-1.0118,-1.0125,-1.0128,-1.0309,-1.0137,-1.0138,-1.0139,-1.014,-1.014,-1.0725,-1.0672,-1.0648,-1.0619,-1.0603,-1.0555,-1.0527,-1.0537,-1.0507,-1.0472,-1.0434,-1.0386,-1.0349,-1.0268,-1.026,-1.0217,-1.0228,-1.0164,-1.0222,-1.0225,-1.0236,-1.0242,-1.024,-1.0154,-1.0153,-1.0151,-1.015,0,-1.0818,-1.0819,-1.0737,-1.0716,-1.071,-1.0654,-1.0637,-1.0593,-1.059,-1.053,-1.0516,-1.0511,-1.0461,-1.0463,-1.0403,-1.0406,-1.0322,-1.033,-1.0333,-1.0337,-1.0285,-1.0292,-1.01,-1.0079,-1.0233,-1.0231,-1.023,0,-1.096,-1.0888,-1.0896,-1.0847,-1.077,-1.0781,-1.0704,-1.0694,-1.0671,-1.0623,-1.0648,-1.0603,-1.061,-1.0565,-1.0569,-1.0498,-1.0485,-1.0485,-1.0488,-1.0486,-1.0487,-1.0474,-1.0484,-1.0487,-1.0488,-1.0489,-1.0489,0,-1.1111,-1.1025,-1.0947,-1.0928,-1.0897,-1.0859,-1.0844,-1.0817,-1.0788,-1.0749,-1.0732,-1.0684,-1.066,-1.0624,-1.063,-1.067,-1.0541,-1.0597,-1.0542,-1.0543,-1.0517,-1.0519,-1.0345,-1.0491,-1.0491,-1.0491,-1.0492,0,-1.1226,-1.1187,-1.1068,-1.1046,-1.1023,-1.0968,-1.0925,-1.0878,-1.0847,-1.0846,-1.0815,-1.0832,-1.0765,-1.0822,-1.0732,-1.0785,-1.076,-1.0752,-1.0748,-1.0747,-1.0812,-1.0722,-1.055,-1.0536,-1.0741,-1.0743,-1.0745,0,-1.1403,-1.1282,-1.1291,-1.1177,-1.1122,-1.1157,-1.1096,-1.1067,-1.106,-1.1013,-1.1005,-1.0949,-1.0991,-1.0974,-1.0929,-1.0919,-1.0851,-1.0927,-1.0866,-1.0864,-1.0881,-1.0721,-1.0699,-1.0587,-1.0771,-1.0768,-1.0766,0,-1.154,-1.15,-1.1478,-1.1459,-1.142,-1.1371,-1.13,-1.1248,-1.1217,-1.1177,-1.1122,-1.1038,-1.107,-1.1039,-1.1047,-1.0999,-1.0897,-1.1038,-1.1038,-1.1019,-1.0781,-1.0762,-1.0743,-1.0913,-1.091,-1.0907,-1.0787,0,-1.173,-1.1665,-1.1605,-1.1554,-1.1516,-1.1441,-1.1441,-1.1401,-1.1414,-1.1408,-1.1321,-1.1292,-1.1236,-1.1211,-1.122,-1.1108,-1.1129,-1.116,-1.1219,-1.1112,-1.1073,-1.1056,-1.1278,-1.128,-1.1281,-1.1283,0,0,-1.1902,-1.181,-1.1818,-1.1749,-1.1718,-1.1753,-1.1674,-1.1647,-1.159,-1.1569,-1.1601,-1.1481,-1.1455,-1.135,-1.1316,-1.129,-1.1272,-1.1308,-1.1161,-1.1148,-1.1135,-1.1093,-1.1076,-1.1285,-1.1286,-1.1286,-1.1286,0,-1.1973,-1.1944,-1.1864,-1.1837,-1.1797,-1.1793,-1.1774,-1.1739,-1.1731,-1.1642,-1.1673,-1.1619,-1.1518,-1.1491,-1.1463,-1.132,-1.1347,-1.1301,-1.1228,-1.1175,-1.116,-1.1146,-1.1102,-1.1085,-1.129,-1.129,-1.129,0,-1.2113,-1.2088,-1.2047,-1.1973,-1.1946,-1.1885,-1.1948,-1.1877,-1.1832,-1.1871,-1.1783,-1.1766,-1.1725,-1.1622,-1.1575,-1.1603,-1.1416,-1.147,-1.1461,-1.1457,-1.1406,-1.1388,-1.1371,-1.1591,-1.1592,-1.1593,0,0,-1.2174,-1.2112,-1.2086,-1.1988,-1.1969,-1.1961,-1.1926,-1.1935,-1.1898,-1.1882,-1.1861,-1.1824,-1.1768,-1.1729,-1.1674,-1.1558,-1.1554,-1.1508,-1.1493,-1.1482,-1.1472,-1.1418,-1.1399,-1.1597,-1.1597,-1.1597,0,0,-1.2203,-1.217,-1.2189,-1.2074,-1.2038,-1.2006,-1.1947,-1.1969,-1.1919,-1.1928,-1.1937,-1.1927,-1.183,-1.181,-1.1866,-1.1696,-1.1754,-1.1741,-1.1713,-1.1695,-1.1681,-1.169,-1.1926,0,0,0,0,0,-1.2275,-1.2175,-1.2192,-1.2173,-1.2076,-1.1997,-1.1985,-1.1991,-1.2034,-1.1988,-1.1974,-1.2003,-1.1844,-1.1893,-1.1873,-1.1813,-1.165,-1.164,-1.1632,-1.1568,-1.155,-1.1534,0,0,0,0,0,0,-1.2267,-1.2243,-1.2195,-1.2158,-1.2137,-1.2,-1.2076,-1.2074,-1.2039,-1.2046,-1.2004,-1.2001,-1.2004,-1.1903,-1.1885,-1.1828,-1.1932,-1.1646,-1.1638,-1.1631,-1.1562,-1.1547,-1.1534,0,0,0,0,0,-1.2261,-1.2242,-1.2085,-1.216,-1.2141,-1.2126,-1.2079,-1.2079,-1.2052,-1.2029,-1.2027,-1.206,-1.2002,-1.1988,-1.1892,-1.1836,-1.1944,-1.1937,-1.1641,-1.1635,-1.1629,-1.1555,0,0,0,0,0,0,-1.2257,-1.2241,-1.2082,-1.2076,-1.2197,-1.2134,-1.2124,-1.2083,-1.2037,-1.2034,-1.2085,-1.2091,-1.2,-1.1989,-1.1978,-1.1839,-1.1954,-1.1947,-1.1943,-1.1636,-1.1631,-1.1627,0,0,0,0,0,0,-1.2251,-1.2236,-1.2079,-1.2126,-1.2126,-1.2141,-1.2132,-1.205,-1.2036,-1.2096,-1.2099,-1.2088,-1.2017,-1.1989,-1.1981,-1.1852,-1.1962,-1.1955,-1.1951,-1.1948,-1.1632,-1.1628,0,0,0,0,0,0,-1.2245,-1.2232,-1.2128,-1.2127,-1.2128,-1.2067,-1.2068,-1.1969,-1.2077,-1.2097,-1.2087,-1.2091,-1.2016,-1.2007,-1.1982,-1.1857,-1.1853,-1.1961,-1.1957,-1.1954,-1.1952,0,0,0,0,0,0,0,-1.224,-1.2326,-1.2114,-1.2129,-1.2129,-1.2026,-1.2025,-1.2023,-1.2078,-1.2082,-1.2086,-1.2089,-1.1999,-1.1992,-1.1984,-1.1862,0,0,-1.1962,-1.1959,0,0,0,0,0,0,0,0,-1.2332,-1.2328,-1.2114,-1.2113,-1.2112,-1.2026,-1.2025,-1.2024,-1.2078,-1.2082,-1.2085,-1.2088,-1.1997,-1.1991,-1.1985,0,0,0,0,0,0,0,0,0,0,0,0,0,0,0,-1.2114,-1.2113,0,-1.2026,-1.2025,-1.2024,-1.2079,-1.2081,-1.2084,-1.2087,-1.1995,-1.199,-1.1986,0,0,0,0,0,0,0,0,0,0,0,0,0,0,0,0,0,0,0,0,0,0,0,0,0,0,0,0,0,0,0,0,0,0,0,0,0,0,0,0,0,0,0,0,0,0,0,0,0,0,0,0,0,0,0,0,0,0,0,0,0,0,0,0,0,0,0,0,0]}]]]